EW5545 Weather Reports


Display with metric or nautical units.
time (UTC)temp
F
wind
direction
speed
MPH
gust
MPH
rain 1hr
in
rain 24hr
in
rain mn
in
humidity
%
barometer
mb
20260906213007 78 254 0.0 0.0 0.00 0.00 0.00 56 1021.0
20260906212006 77 254 0.0 0.0 0.00 0.00 0.00 60 1020.9
20260906211506 77 254 0.0 0.0 0.00 0.00 0.00 63 1020.8
20260906211006 77 254 0.0 0.0 0.00 0.00 0.00 65 1020.8
20260906210505 77 254 0.0 0.0 0.00 0.00 0.00 67 1020.7
20260906210006 77 254 0.0 0.0 0.00 0.00 0.00 69 1020.8
20260906205506 77 254 0.0 0.0 0.00 0.00 0.00 71 1020.7
20260906204506 78 254 0.0 0.0 0.00 0.00 0.00 71 1020.8
20260906204011 78 254 0.0 0.0 0.00 0.00 0.00 73 1020.8
20260906203506 78 254 0.0 1.0 0.00 0.00 0.00 73 1020.8
20260906203006 78 254 1.0 2.0 0.00 0.00 0.00 74 1020.8
20260906202515 78 254 1.0 2.0 0.00 0.00 0.00 74 1020.8
20260906202006 78 254 0.0 2.0 0.00 0.00 0.00 75 1020.8
20260906201506 78 254 0.0 3.0 0.00 0.00 0.00 75 1020.9
20260906201006 78 238 1.0 2.0 0.00 0.00 0.00 75 1020.9
20260906200005 78 238 0.0 2.0 0.00 0.00 0.00 75 1020.9
20260906195006 78 238 0.0 0.0 0.00 0.00 0.00 76 1020.9
20260906194006 78 238 0.0 2.0 0.00 0.00 0.00 76 1021.0
20260906193505 78 238 0.0 0.0 0.00 0.00 0.00 76 1020.9
20260906193006 78 238 0.0 2.0 0.00 0.00 0.00 75 1020.8
20260906192006 78 238 1.0 2.0 0.00 0.00 0.00 74 1020.9
20260906191505 79 253 1.0 2.0 0.00 0.00 0.00 74 1020.9
20260906191005 79 258 0.0 1.0 0.00 0.00 0.00 73 1020.8
20260906190506 79 258 0.0 1.0 0.00 0.00 0.00 73 1020.8
20260906190006 80 258 0.0 1.0 0.00 0.00 0.00 73 1020.8
20260906185505 80 260 0.0 0.0 0.00 0.00 0.00 72 1020.8
20260906185007 80 323 0.0 2.0 0.00 0.00 0.00 73 1020.7
20260906184506 81 314 0.0 2.0 0.00 0.00 0.00 72 1020.7
20260906184011 81 41 1.0 2.0 0.00 0.00 0.00 72 1020.6
20260906183511 81 316 0.0 2.0 0.00 0.00 0.00 72 1020.6
20260906183007 81 57 0.0 2.0 0.00 0.00 0.00 72 1020.6
20260906182508 81 50 0.0 3.0 0.00 0.00 0.00 72 1020.5
20260906182005 81 40 0.0 2.0 0.00 0.00 0.00 71 1020.5
20260906181506 81 53 1.0 3.0 0.00 0.00 0.00 71 1020.4
20260906181005 81 45 1.0 3.0 0.00 0.00 0.00 71 1020.3
20260906180507 82 45 0.0 3.0 0.00 0.00 0.00 71 1020.3
20260906180005 82 45 2.0 5.0 0.00 0.00 0.00 70 1020.2
20260906175505 82 41 3.0 5.0 0.00 0.00 0.00 70 1020.2
20260906175005 82 47 2.0 3.0 0.00 0.00 0.00 69 1020.1
20260906174005 82 40 2.0 3.0 0.00 0.00 0.00 68 1020.0
20260906173506 83 40 1.0 3.0 0.00 0.00 0.00 68 1019.9
20260906173005 83 43 1.0 3.0 0.00 0.00 0.00 68 1019.8
20260906172506 83 49 1.0 5.0 0.00 0.00 0.00 67 1019.8
20260906172006 83 44 2.0 6.0 0.00 0.00 0.00 66 1019.8
20260906171505 83 54 1.0 5.0 0.00 0.00 0.00 65 1019.7
20260906171011 84 38 4.0 7.0 0.00 0.00 0.00 65 1019.7
20260906170506 84 41 4.0 7.0 0.00 0.00 0.00 63 1019.6
20260906170005 84 52 2.0 7.0 0.00 0.00 0.00 63 1019.6
20260906165505 85 40 2.0 5.0 0.00 0.00 0.00 61 1019.6
20260906165007 85 52 2.0 6.0 0.00 0.00 0.00 60 1019.6
20260906164505 85 39 3.0 7.0 0.00 0.00 0.00 59 1019.6
20260906163505 86 41 4.0 7.0 0.00 0.00 0.00 56 1019.5
20260906163007 87 44 2.0 6.0 0.00 0.00 0.00 55 1019.5
20260906162506 87 40 3.0 8.0 0.00 0.00 0.00 54 1019.5
20260906162007 87 61 3.0 7.0 0.00 0.00 0.00 52 1019.5
20260906161514 87 41 3.0 7.0 0.00 0.00 0.00 52 1019.5
20260906160505 88 47 5.0 8.0 0.00 0.00 0.00 49 1019.4
20260906155505 89 39 4.0 12.0 0.00 0.00 0.00 42 1019.4
20260906154506 89 44 4.0 9.0 0.00 0.00 0.00 38 1019.4
20260906154009 89 44 6.0 9.0 0.00 0.00 0.00 39 1019.4
20260906153506 89 38 6.0 8.0 0.00 0.00 0.00 39 1019.4
20260906153006 89 45 5.0 12.0 0.00 0.00 0.00 39 1019.3
20260906152506 90 47 4.0 8.0 0.00 0.00 0.00 41 1019.3
20260906152006 90 53 4.0 12.0 0.00 0.00 0.00 38 1019.3
20260906151006 90 42 5.0 12.0 0.00 0.00 0.00 37 1019.2
20260906150506 90 44 5.0 12.0 0.00 0.00 0.00 35 1019.2
20260906150006 90 43 6.0 10.0 0.00 0.00 0.00 35 1019.2
20260906145506 90 44 7.0 12.0 0.00 0.00 0.00 34 1019.3
20260906145006 91 42 6.0 12.0 0.00 0.00 0.00 36 1019.2
20260906144506 91 55 5.0 9.0 0.00 0.00 0.00 36 1019.2
20260906144005 91 47 5.0 12.0 0.00 0.00 0.00 37 1019.2
20260906143506 91 38 5.0 10.0 0.00 0.00 0.00 39 1019.2
20260906142506 91 44 3.0 12.0 0.00 0.00 0.00 40 1019.2
20260906142006 91 40 6.0 12.0 0.00 0.00 0.00 40 1019.2
20260906141507 91 39 6.0 12.0 0.00 0.00 0.00 40 1019.2
20260906141005 91 49 6.0 12.0 0.00 0.00 0.00 38 1019.2
20260906140506 92 49 4.0 13.0 0.00 0.00 0.00 39 1019.1
20260906140006 91 46 3.0 13.0 0.00 0.00 0.00 39 1019.2
20260906135506 91 45 4.0 12.0 0.00 0.00 0.00 37 1019.2
20260906135006 92 44 6.0 10.0 0.00 0.00 0.00 37 1019.2
20260906134506 92 40 5.0 12.0 0.00 0.00 0.00 37 1019.2
20260906134006 92 51 3.0 10.0 0.00 0.00 0.00 38 1019.2
20260906133506 92 47 4.0 9.0 0.00 0.00 0.00 35 1019.3
20260906133005 92 40 6.0 12.0 0.00 0.00 0.00 35 1019.3
20260906132505 92 55 2.0 12.0 0.00 0.00 0.00 35 1019.3
20260906131006 91 51 7.0 12.0 0.00 0.00 0.00 37 1019.4
20260906130506 91 54 7.0 13.0 0.00 0.00 0.00 38 1019.4
20260906130006 91 49 6.0 12.0 0.00 0.00 0.00 38 1019.4
20260906125506 91 44 8.0 14.0 0.00 0.00 0.00 36 1019.5
20260906125005 92 40 6.0 10.0 0.00 0.00 0.00 35 1019.5
20260906124511 92 47 3.0 9.0 0.00 0.00 0.00 36 1019.5
20260906124011 91 49 5.0 10.0 0.00 0.00 0.00 36 1019.5
20260906123507 91 31 3.0 12.0 0.00 0.00 0.00 38 1019.5
20260906122006 91 49 3.0 6.0 0.00 0.00 0.00 37 1019.6
20260906121506 91 39 5.0 8.0 0.00 0.00 0.00 37 1019.6
20260906121006 91 38 4.0 12.0 0.00 0.00 0.00 38 1019.6
20260906120506 91 41 6.0 12.0 0.00 0.00 0.00 36 1019.6
20260906120006 91 57 2.0 7.0 0.00 0.00 0.00 38 1019.6
20260906115505 90 50 3.0 14.0 0.00 0.00 0.00 42 1019.6
20260906115007 90 44 5.0 12.0 0.00 0.00 0.00 43 1019.7
20260906114506 90 42 5.0 17.0 0.00 0.00 0.00 45 1019.6
20260906114006 90 43 5.0 18.0 0.00 0.00 0.00 46 1019.6
20260906113005 89 46 6.0 12.0 0.00 0.00 0.00 50 1019.6
20260906112505 90 44 6.0 13.0 0.00 0.00 0.00 49 1019.6
20260906112006 89 43 6.0 13.0 0.00 0.00 0.00 49 1019.6
20260906111506 89 48 6.0 12.0 0.00 0.00 0.00 48 1019.6
20260906111006 90 47 7.0 13.0 0.00 0.00 0.00 48 1019.6
20260906110505 90 43 10.0 15.0 0.00 0.00 0.00 46 1019.6
20260906110006 90 42 7.0 14.0 0.00 0.00 0.00 46 1019.6
20260906105505 90 34 7.0 14.0 0.00 0.00 0.00 45 1019.5
20260906104512 90 56 5.0 12.0 0.00 0.00 0.00 43 1019.6
20260906104005 90 38 5.0 8.0 0.00 0.00 0.00 44 1019.6
20260906103506 90 58 6.0 12.0 0.00 0.00 0.00 44 1019.6
20260906103007 90 47 5.0 7.0 0.00 0.00 0.00 44 1019.6
20260906102507 89 42 6.0 12.0 0.00 0.00 0.00 44 1019.6
20260906102006 89 40 6.0 13.0 0.00 0.00 0.00 43 1019.6
20260906101505 89 50 5.0 10.0 0.00 0.00 0.00 45 1019.6
20260906101006 89 35 4.0 12.0 0.00 0.00 0.00 44 1019.6
20260906100506 89 40 6.0 13.0 0.00 0.00 0.00 45 1019.6
20260906100006 89 43 3.0 12.0 0.00 0.00 0.00 43 1019.6
20260906095006 89 41 7.0 10.0 0.00 0.00 0.00 44 1019.7
20260906094505 89 46 3.0 9.0 0.00 0.00 0.00 45 1019.6
20260906094007 88 46 5.0 12.0 0.00 0.00 0.00 44 1019.7
20260906093507 88 54 3.0 12.0 0.00 0.00 0.00 47 1019.7
20260906093006 88 43 4.0 12.0 0.00 0.00 0.00 47 1019.7
20260906092506 88 32 3.0 7.0 0.00 0.00 0.00 45 1019.7
20260906092006 88 43 3.0 12.0 0.00 0.00 0.00 46 1019.7
20260906091506 87 46 6.0 12.0 0.00 0.00 0.00 47 1019.7
20260906091005 87 51 5.0 10.0 0.00 0.00 0.00 50 1019.7
20260906090506 87 45 5.0 10.0 0.00 0.00 0.00 51 1019.8
20260906090007 87 44 2.0 12.0 0.00 0.00 0.00 49 1019.7
20260906085505 87 46 5.0 9.0 0.00 0.00 0.00 51 1019.8
20260906084506 87 50 4.0 8.0 0.00 0.00 0.00 53 1019.7
20260906083511 86 47 5.0 12.0 0.00 0.00 0.00 53 1019.6
20260906082505 86 43 6.0 12.0 0.00 0.00 0.00 52 1019.7
20260906081506 86 18 4.0 7.0 0.00 0.00 0.00 51 1019.6
20260906081005 85 43 5.0 9.0 0.00 0.00 0.00 51 1019.6
20260906080506 85 48 7.0 13.0 0.00 0.00 0.00 52 1019.5
20260906080006 85 36 5.0 12.0 0.00 0.00 0.00 52 1019.5
20260906075506 85 44 3.0 7.0 0.00 0.00 0.00 51 1019.5
20260906074011 84 53 5.0 10.0 0.00 0.00 0.00 49 1019.4
20260906073505 84 57 4.0 10.0 0.00 0.00 0.00 49 1019.3
20260906073011 84 43 3.0 10.0 0.00 0.00 0.00 50 1019.2
20260906072007 84 42 5.0 12.0 0.00 0.00 0.00 50 1019.1
20260906071511 84 36 3.0 8.0 0.00 0.00 0.00 46 1019.1
20260906071005 84 48 3.0 6.0 0.00 0.00 0.00 45 1019.0
20260906070506 84 52 3.0 10.0 0.00 0.00 0.00 44 1018.9
20260906070006 84 21 2.0 10.0 0.00 0.00 0.00 44 1018.9
20260906065507 84 27 3.0 8.0 0.00 0.00 0.00 44 1018.9
20260906065011 84 47 3.0 9.0 0.00 0.00 0.00 44 1018.9
20260906064505 84 36 3.0 8.0 0.00 0.00 0.00 43 1018.9
20260906064015 84 59 3.0 8.0 0.00 0.00 0.00 42 1018.7
20260906063007 83 56 2.0 5.0 0.00 0.00 0.00 40 1018.7
20260906062506 83 40 2.0 5.0 0.00 0.00 0.00 40 1018.7
20260906062006 82 2 1.0 6.0 0.00 0.00 0.00 39 1018.6
20260906061506 82 20 1.0 3.0 0.00 0.00 0.00 39 1018.6
20260906061006 82 17 1.0 3.0 0.00 0.00 0.00 39 1018.6
20260906060507 81 29 1.0 3.0 0.00 0.00 0.00 39 1018.6
20260906060005 81 45 1.0 3.0 0.00 0.00 0.00 39 1018.5
20260906055515 80 277 1.0 2.0 0.00 0.00 0.00 40 1018.4
20260906055005 80 264 1.0 3.0 0.00 0.00 0.00 41 1018.4
20260906054512 79 262 0.0 2.0 0.00 0.00 0.00 41 1018.4
20260906053006 78 254 1.0 3.0 0.00 0.00 0.00 42 1018.3
20260906052506 77 244 0.0 2.0 0.00 0.00 0.00 43 1018.2
20260906052008 77 247 0.0 2.0 0.00 0.00 0.00 43 1018.1
20260906051506 76 251 0.0 3.0 0.00 0.00 0.00 43 1018.1
20260906051006 76 243 0.0 1.0 0.00 0.00 0.00 44 1018.1
20260906050505 75 243 0.0 1.0 0.00 0.00 0.00 45 1018.1
20260906050008 75 243 0.0 1.0 0.00 0.00 0.00 46 1018.2
20260906045506 75 243 0.0 1.0 0.00 0.00 0.00 45 1018.2
20260906045006 75 243 0.0 1.0 0.00 0.00 0.00 45 1018.1
20260906044505 76 243 0.0 0.0 0.00 0.00 0.00 44 1018.1
20260906044006 76 243 0.0 0.0 0.00 0.00 0.00 44 1018.1
20260906043505 76 243 0.0 0.0 0.00 0.00 0.00 44 1018.0
20260906043005 76 243 0.0 1.0 0.00 0.00 0.00 44 1017.9
20260906042506 76 243 0.0 1.0 0.00 0.00 0.00 44 1018.0
20260906042006 75 243 0.0 1.0 0.00 0.00 0.00 45 1017.9
20260906041507 75 243 0.0 1.0 0.00 0.00 0.00 46 1017.8
20260906041007 75 243 0.0 1.0 0.00 0.00 0.00 46 1017.7
20260906040505 75 243 0.0 0.0 0.00 0.00 0.00 47 1017.7
20260906040005 75 243 0.0 1.0 0.00 0.00 0.00 46 1017.7
20260906035505 76 243 0.0 1.0 0.00 0.00 0.00 45 1017.6
20260906035006 76 243 0.0 1.0 0.00 0.00 0.00 45 1017.6
20260906034505 76 243 0.0 1.0 0.00 0.00 0.00 46 1017.6
20260906034009 76 243 0.0 1.0 0.00 0.00 0.00 46 1017.6
20260906033506 76 243 0.0 1.0 0.00 0.00 0.00 46 1017.6
20260906033006 76 243 0.0 1.0 0.00 0.00 0.00 46 1017.6
20260906032006 76 243 0.0 1.0 0.00 0.00 0.00 47 1017.6
20260906031506 76 243 0.0 1.0 0.00 0.00 0.00 47 1017.6
20260906031006 76 243 0.0 1.0 0.00 0.00 0.00 47 1017.5
20260906030506 76 243 0.0 1.0 0.00 0.00 0.00 47 1017.5
20260906030006 76 243 0.0 1.0 0.00 0.00 0.00 47 1017.5
20260906024505 76 243 0.0 2.0 0.00 0.00 0.00 48 1017.4
20260906023007 76 243 1.0 2.0 0.00 0.00 0.00 48 1017.5
20260906022505 77 243 1.0 2.0 0.00 0.00 0.00 48 1017.5
20260906022011 76 242 1.0 2.0 0.00 0.00 0.00 48 1017.5
20260906021507 76 242 0.0 1.0 0.00 0.00 0.00 48 1017.5
20260906020505 76 242 0.0 1.0 0.00 0.00 0.00 49 1017.4
20260906020006 76 242 0.0 2.0 0.00 0.00 0.00 49 1017.5
20260906015506 76 242 0.0 1.0 0.00 0.00 0.00 49 1017.5
20260906015006 77 242 0.0 1.0 0.00 0.00 0.00 49 1017.5
20260906014506 77 242 0.0 1.0 0.00 0.00 0.00 49 1017.5
20260906014006 77 242 0.0 1.0 0.00 0.00 0.00 48 1017.6
20260906013506 78 242 0.0 1.0 0.00 0.00 0.00 48 1017.6
20260906013006 78 242 0.0 1.0 0.00 0.00 0.00 49 1017.6
20260906012006 78 242 0.0 1.0 0.00 0.00 0.00 50 1017.5
20260906011007 78 242 0.0 1.0 0.00 0.00 0.00 50 1017.5
20260906010505 78 242 0.0 2.0 0.00 0.00 0.00 50 1017.5
20260906010007 78 242 0.0 1.0 0.00 0.00 0.00 51 1017.5
20260906005507 78 242 0.0 2.0 0.00 0.00 0.00 51 1017.5
20260906005007 77 241 1.0 2.0 0.00 0.00 0.00 52 1017.6
20260906004507 77 235 0.0 3.0 0.00 0.00 0.00 52 1017.6
20260906004005 78 249 1.0 3.0 0.00 0.00 0.00 52 1017.5
20260906003507 78 246 1.0 3.0 0.00 0.00 0.00 52 1017.5
20260906003006 78 247 0.0 2.0 0.00 0.00 0.00 53 1017.5
20260906002505 78 249 1.0 3.0 0.00 0.00 0.00 53 1017.5
20260906002005 78 237 0.0 2.0 0.00 0.00 0.00 53 1017.5
20260906001005 78 236 1.0 2.0 0.00 0.00 0.00 53 1017.6
20260906000505 78 235 1.0 3.0 0.00 0.00 0.00 53 1017.6
20260906000006 78 235 1.0 3.0 0.00 0.00 0.00 53 1017.6
20260905235507 78 234 0.0 2.0 0.00 0.00 0.00 52 1017.6
20260905235009 78 234 0.0 2.0 0.00 0.00 0.00 52 1017.7
20260905234011 79 234 0.0 2.0 0.00 0.00 0.00 51 1017.8
20260905233505 79 233 2.0 3.0 0.00 0.00 0.00 50 1017.8
20260905233006 79 241 0.0 2.0 0.00 0.00 0.00 49 1017.8
20260905232506 80 242 0.0 3.0 0.00 0.00 0.00 49 1017.8
20260905232006 80 261 1.0 3.0 0.00 0.00 0.00 49 1017.8
20260905231511 79 263 2.0 3.0 0.00 0.00 0.00 50 1017.8
20260905225505 77 200 0.0 1.0 0.00 0.00 0.00 51 1017.9
20260905225006 77 200 0.0 1.0 0.00 0.00 0.00 51 1017.9
20260905224506 78 200 0.0 1.0 0.00 0.00 0.00 51 1017.9
20260905224006 78 200 0.0 0.0 0.00 0.00 0.00 51 1017.9
20260905222006 79 201 0.0 3.0 0.00 0.00 0.00 51 1017.9
20260905221506 79 204 1.0 2.0 0.00 0.00 0.00 51 1017.8
20260905220506 79 204 1.0 2.0 0.00 0.00 0.00 49 1017.7
20260905220007 80 198 1.0 2.0 0.00 0.00 0.00 48 1017.7
20260905215506 80 199 1.0 3.0 0.00 0.00 0.00 47 1017.6
20260905215006 80 196 2.0 3.0 0.00 0.00 0.00 46 1017.6
20260905214505 80 202 1.0 3.0 0.00 0.00 0.00 45 1017.6